,,PressureMeas_1m,,PRMeasQMR101_1,,RHStat155_1m_1,,SRMeasQMS101R_1m,,TAStat155_1m_1,,GenWind_1,,GenWind_1,
2019-10-22, 07:00:06,VALID,916.579,VALID,0.0,VALID,99.923,VALID,32.734,VALID,20.677,INVALID,360.0,VALID,0.0,
2019-10-22, 07:01:06,VALID,916.583,VALID,0.0,VALID,99.919,VALID,37.633,VALID,20.668,INVALID,360.0,VALID,0.0,
2019-10-22, 07:02:06,VALID,916.605,VALID,0.0,VALID,99.919,VALID,38.582,VALID,20.636,INVALID,360.0,VALID,0.0,
2019-10-22, 07:03:06,VALID,916.634,VALID,0.0,VALID,99.917,VALID,37.305,VALID,20.628,INVALID,360.0,VALID,0.0,
2019-10-22, 07:04:06,VALID,916.668,VALID,0.0,VALID,99.917,VALID,36.629,VALID,20.628,INVALID,360.0,VALID,0.0,
2019-10-22, 07:05:06,VALID,916.678,VALID,0.0,VALID,99.922,VALID,37.96,VALID,20.63,INVALID,360.0,VALID,0.0,
2019-10-22, 07:06:06,VALID,916.697,VALID,0.0,VALID,99.924,VALID,38.716,VALID,20.648,INVALID,360.0,VALID,0.0,
2019-10-22, 07:07:06,VALID,916.723,VALID,0.0,VALID,99.92,VALID,36.061,VALID,20.691,INVALID,360.0,VALID,0.0,
2019-10-22, 07:08:06,VALID,916.75,VALID,0.0,VALID,99.921,VALID,32.145,VALID,20.764,INVALID,360.0,VALID,0.0,
2019-10-22, 07:09:06,VALID,916.754,VALID,0.0,VALID,99.919,VALID,30.353,VALID,20.784,INVALID,360.0,VALID,0.0,
2019-10-22, 07:10:06,VALID,916.776,VALID,0.0,VALID,99.918,VALID,31.917,VALID,20.793,INVALID,360.0,VALID,0.0,
2019-10-22, 07:11:06,VALID,916.79,VALID,0.0,VALID,99.919,VALID,34.978,VALID,20.831,INVALID,360.0,VALID,0.0,
2019-10-22, 07:12:06,VALID,916.785,VALID,0.0,VALID,99.919,VALID,38.335,VALID,20.829,INVALID,360.0,VALID,0.0,
2019-10-22, 07:13:06,VALID,916.798,VALID,0.0,VALID,99.919,VALID,42.701,VALID,20.82,INVALID,360.0,VALID,0.0,
2019-10-22, 07:14:06,VALID,916.794,VALID,0.0,VALID,99.921,VALID,48.193,VALID,20.731,INVALID,360.0,VALID,0.0,
2019-10-22, 07:15:06,VALID,916.793,VALID,0.0,VALID,99.921,VALID,54.203,VALID,20.622,INVALID,360.0,VALID,0.0,
2019-10-22, 07:16:06,VALID,916.771,VALID,0.0,VALID,99.919,VALID,59.914,VALID,20.616,INVALID,360.0,VALID,0.0,
2019-10-22, 07:17:06,VALID,916.767,VALID,0.0,VALID,99.92,VALID,62.997,VALID,20.587,INVALID,360.0,VALID,0.0,
2019-10-22, 07:18:06,VALID,916.755,VALID,0.0,VALID,99.919,VALID,64.945,VALID,20.61,INVALID,360.0,VALID,0.0,
2019-10-22, 07:19:06,VALID,916.737,VALID,0.0,VALID,99.919,VALID,65.951,VALID,20.649,INVALID,360.0,VALID,0.0,
2019-10-22, 07:20:06,VALID,916.724,VALID,0.0,VALID,99.92,VALID,65.011,VALID,20.693,INVALID,360.0,VALID,0.0,
2019-10-22, 07:21:06,VALID,916.706,VALID,0.0,VALID,99.92,VALID,65.349,VALID,20.693,INVALID,360.0,VALID,0.0,
2019-10-22, 07:22:06,VALID,916.664,VALID,0.0,VALID,99.922,VALID,66.759,VALID,20.764,INVALID,360.0,VALID,0.0,
2019-10-22, 07:23:06,VALID,916.666,VALID,0.0,VALID,99.922,VALID,66.061,VALID,20.842,INVALID,360.0,VALID,0.0,
2019-10-22, 07:24:06,VALID,916.653,VALID,0.0,VALID,99.923,VALID,62.377,VALID,20.848,INVALID,360.0,VALID,0.0,
2019-10-22, 07:25:06,VALID,916.623,VALID,0.0,VALID,99.919,VALID,64.695,VALID,20.788,INVALID,360.0,VALID,0.0,
2019-10-22, 07:26:06,VALID,916.612,VALID,0.0,VALID,99.921,VALID,67.667,VALID,20.829,INVALID,360.0,VALID,0.0,
2019-10-22, 07:27:06,VALID,916.604,VALID,0.0,VALID,99.921,VALID,69.542,VALID,20.883,INVALID,360.0,VALID,0.0,
2019-10-22, 07:28:06,VALID,916.597,VALID,0.0,VALID,99.921,VALID,70.516,VALID,20.897,INVALID,360.0,VALID,0.0,
2019-10-22, 07:29:06,VALID,916.599,VALID,0.0,VALID,99.919,VALID,71.713,VALID,20.934,INVALID,360.0,VALID,0.0,
2019-10-22, 07:30:06,VALID,916.629,VALID,0.0,VALID,99.923,VALID,71.135,VALID,20.996,INVALID,360.0,VALID,0.0,
2019-10-22, 07:31:06,VALID,916.67,VALID,0.0,VALID,99.922,VALID,75.801,VALID,20.943,INVALID,360.0,VALID,0.0,
2019-10-22, 07:32:06,VALID,916.676,VALID,0.0,VALID,99.919,VALID,79.639,VALID,20.874,INVALID,360.0,VALID,0.0,
2019-10-22, 07:33:06,VALID,916.697,VALID,0.0,VALID,99.921,VALID,86.817,VALID,20.832,INVALID,360.0,VALID,0.0,
2019-10-22, 07:34:06,VALID,916.71,VALID,0.0,VALID,99.922,VALID,85.342,VALID,20.899,INVALID,360.0,VALID,0.0,
2019-10-22, 07:35:06,VALID,916.717,VALID,0.2,VALID,99.921,VALID,75.831,VALID,20.963,INVALID,360.0,VALID,0.0,
2019-10-22, 07:36:06,VALID,916.736,VALID,0.0,VALID,99.922,VALID,66.599,VALID,21.02,INVALID,360.0,VALID,0.0,
2019-10-22, 07:37:06,VALID,916.755,VALID,0.0,VALID,99.92,VALID,58.768,VALID,21.013,INVALID,360.0,VALID,0.0,
2019-10-22, 07:38:06,VALID,916.787,VALID,0.0,VALID,99.924,VALID,58.745,VALID,20.923,INVALID,360.0,VALID,0.0,
2019-10-22, 07:39:06,VALID,916.806,VALID,0.0,VALID,99.921,VALID,65.857,VALID,20.884,INVALID,360.0,VALID,0.0,
2019-10-22, 07:40:06,VALID,916.792,VALID,0.0,VALID,99.922,VALID,73.54,VALID,20.72,INVALID,360.0,VALID,0.0,
2019-10-22, 07:41:06,VALID,916.789,VALID,0.0,VALID,99.922,VALID,77.755,VALID,20.769,INVALID,360.0,VALID,0.0,
2019-10-22, 07:42:06,VALID,916.78,VALID,0.0,VALID,99.923,VALID,80.626,VALID,20.77,INVALID,360.0,VALID,0.0,
2019-10-22, 07:43:06,VALID,916.795,VALID,0.0,VALID,99.921,VALID,82.667,VALID,20.755,INVALID,360.0,VALID,0.0,
2019-10-22, 07:44:06,VALID,916.781,VALID,0.0,VALID,99.92,VALID,84.671,VALID,20.793,INVALID,360.0,VALID,0.0,
2019-10-22, 07:45:06,VALID,916.8,VALID,0.0,VALID,99.922,VALID,79.974,VALID,20.876,INVALID,360.0,VALID,0.0,
2019-10-22, 07:46:06,VALID,916.828,VALID,0.0,VALID,99.921,VALID,70.266,VALID,20.91,INVALID,360.0,VALID,0.0,
2019-10-22, 07:47:06,VALID,916.861,VALID,0.0,VALID,99.92,VALID,61.71,VALID,20.862,INVALID,360.0,VALID,0.0,
2019-10-22, 07:48:06,VALID,916.893,VALID,0.0,VALID,99.921,VALID,59.081,VALID,20.869,INVALID,360.0,VALID,0.0,
2019-10-22, 07:49:06,VALID,916.927,VALID,0.0,VALID,99.922,VALID,61.137,VALID,20.945,INVALID,360.0,VALID,0.0,
2019-10-22, 07:50:06,VALID,916.956,VALID,0.0,VALID,99.922,VALID,69.654,VALID,21.028,INVALID,360.0,VALID,0.0,
2019-10-22, 07:51:06,VALID,916.957,VALID,0.0,VALID,99.924,VALID,73.289,VALID,21.046,INVALID,360.0,VALID,0.0,
2019-10-22, 07:52:06,VALID,916.988,VALID,0.0,VALID,99.924,VALID,69.345,VALID,20.987,INVALID,360.0,VALID,0.0,
2019-10-22, 07:53:06,VALID,916.993,VALID,0.0,VALID,99.925,VALID,66.595,VALID,20.979,INVALID,360.0,VALID,0.0,
2019-10-22, 07:54:06,VALID,917.001,VALID,0.0,VALID,99.923,VALID,67.679,VALID,20.95,INVALID,360.0,VALID,0.0,
2019-10-22, 07:55:06,VALID,917.023,VALID,0.0,VALID,99.923,VALID,67.988,VALID,21.008,INVALID,360.0,VALID,0.0,
2019-10-22, 07:56:06,VALID,917.046,VALID,0.0,VALID,99.922,VALID,66.116,VALID,21.016,INVALID,360.0,VALID,0.0,
2019-10-22, 07:57:06,VALID,917.04,VALID,0.0,VALID,99.923,VALID,67.697,VALID,21.019,INVALID,360.0,VALID,0.0,
2019-10-22, 07:58:06,VALID,917.066,VALID,0.0,VALID,99.923,VALID,67.993,VALID,20.993,INVALID,360.0,VALID,0.0,
2019-10-22, 07:59:06,VALID,917.081,VALID,0.0,VALID,99.921,VALID,66.56,VALID,21.01,INVALID,360.0,VALID,0.0,
2019-10-22, 08:00:06,VALID,917.083,VALID,0.0,VALID,99.923,VALID,57.831,VALID,21.051,INVALID,360.0,VALID,0.0,
2019-10-22, 08:01:06,VALID,917.116,VALID,0.0,VALID,99.924,VALID,46.897,VALID,21.026,INVALID,360.0,VALID,0.0,
2019-10-22, 08:02:06,VALID,917.134,VALID,0.0,VALID,99.921,VALID,41.896,VALID,20.957,INVALID,360.0,VALID,0.0,
2019-10-22, 08:03:06,VALID,917.157,VALID,0.0,VALID,99.921,VALID,40.744,VALID,20.932,INVALID,360.0,VALID,0.0,
2019-10-22, 08:04:06,VALID,917.173,VALID,0.0,VALID,99.924,VALID,40.088,VALID,20.926,INVALID,360.0,VALID,0.0,
2019-10-22, 08:05:06,VALID,917.184,VALID,0.0,VALID,99.921,VALID,40.92,VALID,20.901,INVALID,360.0,VALID,0.0,
2019-10-22, 08:06:06,VALID,917.205,VALID,0.0,VALID,99.924,VALID,41.406,VALID,20.876,INVALID,360.0,VALID,0.0,
2019-10-22, 08:07:06,VALID,917.204,VALID,0.0,VALID,99.922,VALID,39.587,VALID,20.879,INVALID,360.0,VALID,0.0,
2019-10-22, 08:08:06,VALID,917.216,VALID,0.0,VALID,99.923,VALID,37.91,VALID,20.841,INVALID,360.0,VALID,0.0,
2019-10-22, 08:09:06,VALID,917.252,VALID,0.0,VALID,99.923,VALID,37.19,VALID,20.802,INVALID,360.0,VALID,0.0,
2019-10-22, 08:10:06,VALID,917.271,VALID,0.0,VALID,99.923,VALID,36.721,VALID,20.771,INVALID,360.0,VALID,0.0,
2019-10-22, 08:11:06,VALID,917.295,VALID,0.0,VALID,99.923,VALID,37.286,VALID,20.808,INVALID,360.0,VALID,0.0,
2019-10-22, 08:12:06,VALID,917.308,VALID,0.0,VALID,99.922,VALID,39.319,VALID,20.845,INVALID,360.0,VALID,0.0,
2019-10-22, 08:13:06,VALID,917.321,VALID,0.0,VALID,99.922,VALID,40.681,VALID,20.845,INVALID,360.0,VALID,0.0,
2019-10-22, 08:14:06,VALID,917.306,VALID,0.0,VALID,99.922,VALID,41.614,VALID,20.833,INVALID,360.0,VALID,0.0,
2019-10-22, 08:15:06,VALID,917.309,VALID,0.0,VALID,99.922,VALID,43.121,VALID,20.853,INVALID,360.0,VALID,0.0,
2019-10-22, 08:16:06,VALID,917.324,VALID,0.0,VALID,99.921,VALID,44.593,VALID,20.83,INVALID,360.0,VALID,0.0,
2019-10-22, 08:17:06,VALID,917.33,VALID,0.0,VALID,99.923,VALID,45.26,VALID,20.864,INVALID,360.0,VALID,0.0,
2019-10-22, 08:18:06,VALID,917.36,VALID,0.0,VALID,99.922,VALID,44.867,VALID,20.868,INVALID,360.0,VALID,0.0,
2019-10-22, 08:19:06,VALID,917.391,VALID,0.0,VALID,99.92,VALID,44.704,VALID,20.906,INVALID,360.0,VALID,0.0,
2019-10-22, 08:20:06,VALID,917.404,VALID,0.0,VALID,99.925,VALID,44.632,VALID,20.989,INVALID,360.0,VALID,0.0,
2019-10-22, 08:21:06,VALID,917.418,VALID,0.0,VALID,99.925,VALID,44.174,VALID,20.994,INVALID,360.0,VALID,0.0,
2019-10-22, 08:22:06,VALID,917.441,VALID,0.0,VALID,99.922,VALID,44.521,VALID,20.941,INVALID,360.0,VALID,0.0,
2019-10-22, 08:23:06,VALID,917.444,VALID,0.0,VALID,99.923,VALID,43.953,VALID,20.87,INVALID,360.0,VALID,0.0,
2019-10-22, 08:24:06,VALID,917.45,VALID,0.0,VALID,99.92,VALID,39.105,VALID,20.805,INVALID,360.0,VALID,0.0,
2019-10-22, 08:25:06,VALID,917.466,VALID,0.0,VALID,99.923,VALID,33.612,VALID,20.85,INVALID,360.0,VALID,0.0,
2019-10-22, 08:26:06,VALID,917.498,VALID,0.0,VALID,99.921,VALID,30.224,VALID,20.887,INVALID,360.0,VALID,0.0,
2019-10-22, 08:27:06,VALID,917.497,VALID,0.0,VALID,99.921,VALID,29.072,VALID,20.895,INVALID,360.0,VALID,0.0,
2019-10-22, 08:28:06,VALID,917.521,VALID,0.0,VALID,99.923,VALID,29.338,VALID,20.91,INVALID,360.0,VALID,0.0,
2019-10-22, 08:29:06,VALID,917.518,VALID,0.0,VALID,99.923,VALID,29.897,VALID,20.883,INVALID,360.0,VALID,0.0,
2019-10-22, 08:30:06,VALID,917.545,VALID,0.0,VALID,99.92,VALID,27.851,VALID,20.891,INVALID,360.0,VALID,0.0,
2019-10-22, 08:31:06,VALID,917.577,VALID,0.2,VALID,99.92,VALID,22.286,VALID,20.88,INVALID,360.0,VALID,0.0,
2019-10-22, 08:32:06,VALID,917.603,VALID,0.0,VALID,99.921,VALID,16.329,VALID,20.895,INVALID,360.0,VALID,0.0,
2019-10-22, 08:33:06,VALID,917.64,VALID,0.0,VALID,99.921,VALID,12.017,VALID,20.857,INVALID,360.0,VALID,0.0,
2019-10-22, 08:34:06,VALID,917.666,VALID,0.0,VALID,99.923,VALID,10.04,VALID,20.823,INVALID,360.0,VALID,0.0,
2019-10-22, 08:35:06,VALID,917.681,VALID,0.0,VALID,99.923,VALID,9.979,VALID,20.869,INVALID,360.0,VALID,0.0,
2019-10-22, 08:36:06,VALID,917.688,VALID,0.4,VALID,99.921,VALID,11.45,VALID,20.914,INVALID,360.0,VALID,0.0,
2019-10-22, 08:37:06,VALID,917.692,VALID,0.2,VALID,99.92,VALID,14.003,VALID,20.913,INVALID,360.0,VALID,0.0,
2019-10-22, 08:38:06,VALID,917.687,VALID,0.2,VALID,99.921,VALID,15.874,VALID,20.855,INVALID,360.0,VALID,0.0,
2019-10-22, 08:39:06,VALID,917.692,VALID,0.2,VALID,99.922,VALID,16.234,VALID,20.763,INVALID,360.0,VALID,0.0,
2019-10-22, 08:40:06,VALID,917.719,VALID,0.6,VALID,99.92,VALID,16.394,VALID,20.755,INVALID,360.0,VALID,0.0,
2019-10-22, 08:41:06,VALID,917.714,VALID,0.6,VALID,99.921,VALID,16.4,VALID,20.784,INVALID,360.0,VALID,0.0,
2019-10-22, 08:42:06,VALID,917.728,VALID,0.6,VALID,99.921,VALID,16.278,VALID,20.782,INVALID,360.0,VALID,0.0,
2019-10-22, 08:43:06,VALID,917.779,VALID,0.2,VALID,99.922,VALID,15.759,VALID,20.772,INVALID,360.0,VALID,0.0,
2019-10-22, 08:44:06,VALID,917.832,VALID,1.0,VALID,99.918,VALID,15.419,VALID,20.719,INVALID,360.0,VALID,0.0,
2019-10-22, 08:45:06,VALID,917.794,VALID,1.2,VALID,99.923,VALID,17.271,VALID,20.692,INVALID,360.0,VALID,0.0,
2019-10-22, 08:46:06,VALID,917.805,VALID,0.4,VALID,99.921,VALID,20.86,VALID,20.67,INVALID,360.0,VALID,0.0,
2019-10-22, 08:47:06,VALID,917.811,VALID,0.8,VALID,99.92,VALID,25.169,VALID,20.682,INVALID,360.0,VALID,0.0,
2019-10-22, 08:48:06,VALID,917.789,VALID,0.6,VALID,99.919,VALID,29.825,VALID,20.694,INVALID,360.0,VALID,0.0,
2019-10-22, 08:49:06,VALID,917.772,VALID,0.2,VALID,99.919,VALID,34.768,VALID,20.717,INVALID,360.0,VALID,0.0,
2019-10-22, 08:50:06,VALID,917.726,VALID,0.4,VALID,99.919,VALID,36.703,VALID,20.697,INVALID,360.0,VALID,0.0,
2019-10-22, 08:51:06,VALID,917.689,VALID,0.2,VALID,99.921,VALID,36.36,VALID,20.704,INVALID,360.0,VALID,0.0,
2019-10-22, 08:52:06,VALID,917.683,VALID,0.0,VALID,99.921,VALID,34.104,VALID,20.707,INVALID,360.0,VALID,0.0,
2019-10-22, 08:53:06,VALID,917.714,VALID,0.0,VALID,99.921,VALID,30.312,VALID,20.733,INVALID,360.0,VALID,0.0,
2019-10-22, 08:54:06,VALID,917.767,VALID,0.0,VALID,99.918,VALID,27.01,VALID,20.739,INVALID,360.0,VALID,0.0,
2019-10-22, 08:55:06,VALID,917.822,VALID,0.0,VALID,99.916,VALID,24.503,VALID,20.739,INVALID,360.0,VALID,0.0,
2019-10-22, 08:56:06,VALID,917.871,VALID,0.0,VALID,99.92,VALID,23.93,VALID,20.733,INVALID,360.0,VALID,0.209,
2019-10-22, 08:57:06,VALID,917.862,VALID,0.0,VALID,99.92,VALID,50.299,VALID,20.743,INVALID,360.0,VALID,0.0,
2019-10-22, 08:58:06,VALID,917.825,VALID,0.0,VALID,99.919,VALID,121.902,VALID,20.748,INVALID,360.0,VALID,0.0,
2019-10-22, 08:59:06,VALID,917.777,VALID,0.2,VALID,99.92,VALID,163.617,VALID,20.686,INVALID,360.0,VALID,0.0,
2019-10-22, 09:00:06,VALID,917.729,VALID,0.0,VALID,99.917,VALID,188.116,VALID,20.541,INVALID,360.0,VALID,0.0,
2019-10-22, 09:01:06,VALID,917.703,VALID,0.0,VALID,99.919,VALID,205.855,VALID,20.507,INVALID,360.0,VALID,0.0,
2019-10-22, 09:02:06,VALID,917.676,VALID,0.0,VALID,99.92,VALID,221.953,VALID,20.422,INVALID,360.0,VALID,0.0,
2019-10-22, 09:03:06,VALID,917.675,VALID,0.0,VALID,99.919,VALID,238.199,VALID,20.594,INVALID,360.0,VALID,0.0,
2019-10-22, 09:04:06,VALID,917.676,VALID,0.0,VALID,99.921,VALID,260.149,VALID,20.613,INVALID,360.0,VALID,0.0,
2019-10-22, 09:05:06,VALID,917.68,VALID,0.0,VALID,99.924,VALID,286.064,VALID,20.834,INVALID,360.0,VALID,0.0,
2019-10-22, 09:06:06,VALID,917.702,VALID,0.0,VALID,99.922,VALID,313.97,VALID,21.118,INVALID,360.0,VALID,0.0,
2019-10-22, 09:07:06,VALID,917.701,VALID,0.0,VALID,99.922,VALID,341.566,VALID,20.946,INVALID,360.0,VALID,0.0,
2019-10-22, 09:08:06,VALID,917.667,VALID,0.0,VALID,99.922,VALID,354.136,VALID,21.03,INVALID,360.0,VALID,0.0,
2019-10-22, 09:09:06,VALID,917.665,VALID,0.0,VALID,99.923,VALID,353.53,VALID,21.196,INVALID,360.0,VALID,0.0,
2019-10-22, 09:10:06,VALID,917.683,VALID,0.0,VALID,99.914,VALID,350.254,VALID,21.003,INVALID,360.0,VALID,0.0,
2019-10-22, 09:11:06,VALID,917.672,VALID,0.0,VALID,99.89,VALID,350.197,VALID,20.975,INVALID,360.0,VALID,0.0,
2019-10-22, 09:12:06,VALID,917.667,VALID,0.0,VALID,99.913,VALID,355.543,VALID,20.993,INVALID,360.0,VALID,0.0,
2019-10-22, 09:13:06,VALID,917.654,VALID,0.0,VALID,99.885,VALID,363.177,VALID,21.102,INVALID,360.0,VALID,0.0,
2019-10-22, 09:14:06,VALID,917.66,VALID,0.0,VALID,99.845,VALID,361.901,VALID,21.09,INVALID,360.0,VALID,0.0,
2019-10-22, 09:15:06,VALID,917.67,VALID,0.0,VALID,99.624,VALID,350.126,VALID,21.036,INVALID,360.0,VALID,0.0,
2019-10-22, 09:16:06,VALID,917.684,VALID,0.0,VALID,99.354,VALID,336.77,VALID,20.995,INVALID,360.0,VALID,0.0,
2019-10-22, 09:17:06,VALID,917.687,VALID,0.0,VALID,99.201,VALID,326.459,VALID,21.022,INVALID,360.0,VALID,0.0,
2019-10-22, 09:18:06,VALID,917.673,VALID,0.0,VALID,99.17,VALID,313.827,VALID,21.089,INVALID,360.0,VALID,0.0,
2019-10-22, 09:19:06,VALID,917.684,VALID,0.0,VALID,99.323,VALID,298.732,VALID,21.234,INVALID,360.0,VALID,0.0,
2019-10-22, 09:20:06,VALID,917.676,VALID,0.0,VALID,99.418,VALID,288.206,VALID,21.383,INVALID,360.0,VALID,0.0,
2019-10-22, 09:21:06,VALID,917.688,VALID,0.0,VALID,99.495,VALID,283.507,VALID,21.439,INVALID,360.0,VALID,0.0,
2019-10-22, 09:22:06,VALID,917.667,VALID,0.0,VALID,98.745,VALID,278.458,VALID,21.214,INVALID,360.0,VALID,0.0,
2019-10-22, 09:23:06,VALID,917.662,VALID,0.0,VALID,98.357,VALID,269.992,VALID,21.17,INVALID,360.0,VALID,0.0,
2019-10-22, 09:24:06,VALID,917.665,VALID,0.0,VALID,98.849,VALID,256.632,VALID,21.371,INVALID,360.0,VALID,0.0,
2019-10-22, 09:25:06,VALID,917.693,VALID,0.0,VALID,99.035,VALID,243.805,VALID,21.455,INVALID,360.0,VALID,0.095,
2019-10-22, 09:26:06,VALID,917.688,VALID,0.0,VALID,98.363,VALID,237.485,VALID,21.327,INVALID,360.0,VALID,0.151,
2019-10-22, 09:27:06,VALID,917.663,VALID,0.0,VALID,97.99,VALID,238.796,VALID,21.363,INVALID,360.0,VALID,0.053,
2019-10-22, 09:28:06,VALID,917.675,VALID,0.0,VALID,97.321,VALID,247.982,VALID,21.326,INVALID,360.0,VALID,0.932,
2019-10-22, 09:29:06,VALID,917.665,VALID,0.0,VALID,95.883,VALID,257.105,VALID,21.321,VALID,47.0,VALID,1.857,
2019-10-22, 09:30:06,VALID,917.7,VALID,0.0,VALID,96.283,VALID,262.822,VALID,21.393,VALID,50.0,VALID,1.689,
2019-10-22, 09:31:06,VALID,917.71,VALID,0.0,VALID,95.589,VALID,266.018,VALID,21.419,VALID,51.0,VALID,1.966,
2019-10-22, 09:32:06,VALID,917.701,VALID,0.0,VALID,95.235,VALID,267.164,VALID,21.408,INVALID,360.0,VALID,0.512,
2019-10-22, 09:33:06,VALID,917.687,VALID,0.0,VALID,95.218,VALID,269.475,VALID,21.424,INVALID,360.0,VALID,0.683,
2019-10-22, 09:34:06,VALID,917.687,VALID,0.0,VALID,95.039,VALID,266.594,VALID,21.441,INVALID,360.0,VALID,0.0,
2019-10-22, 09:35:06,VALID,917.688,VALID,0.0,VALID,95.448,VALID,262.772,VALID,21.486,INVALID,360.0,VALID,0.0,
2019-10-22, 09:36:06,VALID,917.69,VALID,0.0,VALID,95.419,VALID,259.684,VALID,21.497,INVALID,360.0,VALID,0.0,
2019-10-22, 09:37:06,VALID,917.714,VALID,0.0,VALID,95.834,VALID,259.383,VALID,21.549,INVALID,360.0,VALID,0.0,
2019-10-22, 09:38:06,VALID,917.704,VALID,0.0,VALID,94.81,VALID,261.413,VALID,21.552,INVALID,360.0,VALID,0.0,
2019-10-22, 09:39:06,VALID,917.704,VALID,0.0,VALID,95.01,VALID,272.99,VALID,21.586,INVALID,360.0,VALID,0.0,
2019-10-22, 09:40:06,VALID,917.727,VALID,0.0,VALID,94.705,VALID,287.931,VALID,21.628,INVALID,360.0,VALID,0.0,
2019-10-22, 09:41:06,VALID,917.741,VALID,0.0,VALID,94.907,VALID,292.411,VALID,21.717,INVALID,360.0,VALID,0.207,
2019-10-22, 09:42:06,VALID,917.743,VALID,0.0,VALID,95.103,VALID,290.54,VALID,21.838,VALID,49.0,VALID,0.75,
2019-10-22, 09:43:06,VALID,917.74,VALID,0.0,VALID,94.684,VALID,278.588,VALID,21.935,VALID,46.0,VALID,0.436,
2019-10-22, 09:44:06,VALID,917.755,VALID,0.0,VALID,93.349,VALID,258.143,VALID,21.991,INVALID,360.0,VALID,0.0,
2019-10-22, 09:45:06,VALID,917.747,VALID,0.0,VALID,93.131,VALID,241.971,VALID,22.011,INVALID,360.0,VALID,0.0,
2019-10-22, 09:46:06,VALID,917.741,VALID,0.0,VALID,92.971,VALID,241.358,VALID,22.023,INVALID,360.0,VALID,0.109,
2019-10-22, 09:47:06,VALID,917.728,VALID,0.0,VALID,92.251,VALID,255.997,VALID,22.056,INVALID,360.0,VALID,0.078,
2019-10-22, 09:48:06,VALID,917.711,VALID,0.0,VALID,92.216,VALID,270.6,VALID,22.139,INVALID,360.0,VALID,0.0,
2019-10-22, 09:49:06,VALID,917.699,VALID,0.0,VALID,91.988,VALID,279.401,VALID,22.198,INVALID,360.0,VALID,0.0,
2019-10-22, 09:50:06,VALID,917.694,VALID,0.0,VALID,91.457,VALID,299.933,VALID,22.231,INVALID,360.0,VALID,0.091,
2019-10-22, 09:51:06,VALID,917.659,VALID,0.0,VALID,90.218,VALID,316.649,VALID,22.255,INVALID,360.0,VALID,0.02,
2019-10-22, 09:52:06,VALID,917.674,VALID,0.0,VALID,91.157,VALID,311.577,VALID,22.371,INVALID,360.0,VALID,0.749,
2019-10-22, 09:53:06,VALID,917.688,VALID,0.0,VALID,89.024,VALID,293.874,VALID,22.355,VALID,47.0,VALID,1.132,
2019-10-22, 09:54:06,VALID,917.678,VALID,0.0,VALID,89.2,VALID,277.347,VALID,22.363,INVALID,360.0,VALID,0.168,
2019-10-22, 09:55:06,VALID,917.662,VALID,0.0,VALID,88.96,VALID,274.402,VALID,22.341,INVALID,360.0,VALID,0.112,
2019-10-22, 09:56:06,VALID,917.661,VALID,0.0,VALID,90.37,VALID,288.416,VALID,22.338,INVALID,360.0,VALID,0.0,
2019-10-22, 09:57:06,VALID,917.633,VALID,0.0,VALID,90.673,VALID,306.306,VALID,22.386,INVALID,360.0,VALID,0.0,
2019-10-22, 09:58:06,VALID,917.584,VALID,0.0,VALID,90.033,VALID,314.048,VALID,22.397,INVALID,360.0,VALID,0.0,
2019-10-22, 09:59:06,VALID,917.56,VALID,0.0,VALID,89.452,VALID,317.108,VALID,22.444,INVALID,360.0,VALID,0.0,
2019-10-22, 10:00:06,VALID,917.54,VALID,0.0,VALID,87.653,VALID,319.567,VALID,22.468,INVALID,360.0,VALID,0.0,
2019-10-22, 10:01:06,VALID,917.495,VALID,0.0,VALID,85.586,VALID,319.818,VALID,22.482,INVALID,360.0,VALID,0.0,
2019-10-22, 10:02:06,VALID,917.477,VALID,0.0,VALID,86.584,VALID,317.545,VALID,22.634,INVALID,360.0,VALID,0.0,
2019-10-22, 10:03:06,VALID,917.464,VALID,0.0,VALID,86.387,VALID,314.046,VALID,22.819,INVALID,360.0,VALID,0.0,
2019-10-22, 10:04:06,VALID,917.465,VALID,0.0,VALID,86.027,VALID,309.875,VALID,22.928,INVALID,360.0,VALID,0.0,
2019-10-22, 10:05:06,VALID,917.456,VALID,0.0,VALID,84.699,VALID,307.46,VALID,23.018,INVALID,360.0,VALID,0.0,
2019-10-22, 10:06:06,VALID,917.488,VALID,0.0,VALID,84.273,VALID,306.649,VALID,23.079,INVALID,360.0,VALID,0.0,
2019-10-22, 10:07:06,VALID,917.497,VALID,0.0,VALID,84.614,VALID,307.393,VALID,23.173,INVALID,360.0,VALID,0.0,
2019-10-22, 10:08:06,VALID,917.501,VALID,0.0,VALID,84.459,VALID,315.25,VALID,23.257,INVALID,360.0,VALID,0.0,
2019-10-22, 10:09:06,VALID,917.511,VALID,0.0,VALID,82.095,VALID,330.214,VALID,23.229,INVALID,360.0,VALID,0.0,
2019-10-22, 10:10:06,VALID,917.501,VALID,0.0,VALID,83.48,VALID,348.563,VALID,23.112,INVALID,360.0,VALID,0.0,
2019-10-22, 10:11:06,VALID,917.486,VALID,0.0,VALID,85.216,VALID,362.791,VALID,23.085,INVALID,360.0,VALID,0.0,
2019-10-22, 10:12:06,VALID,917.48,VALID,0.0,VALID,85.017,VALID,348.964,VALID,23.139,INVALID,360.0,VALID,0.0,
2019-10-22, 10:13:06,VALID,917.495,VALID,0.0,VALID,82.632,VALID,334.861,VALID,23.11,INVALID,360.0,VALID,0.0,
2019-10-22, 10:14:06,VALID,917.483,VALID,0.0,VALID,84.019,VALID,321.176,VALID,23.146,INVALID,360.0,VALID,0.0,
2019-10-22, 10:15:06,VALID,917.504,VALID,0.0,VALID,81.788,VALID,313.174,VALID,23.207,INVALID,360.0,VALID,0.0,
2019-10-22, 10:16:06,VALID,917.53,VALID,0.0,VALID,82.678,VALID,313.861,VALID,23.262,INVALID,360.0,VALID,0.0,
2019-10-22, 10:17:06,VALID,917.542,VALID,0.0,VALID,82.827,VALID,325.767,VALID,23.32,INVALID,360.0,VALID,0.0,
2019-10-22, 10:18:06,VALID,917.538,VALID,0.0,VALID,84.405,VALID,348.888,VALID,23.433,INVALID,360.0,VALID,0.0,
2019-10-22, 10:19:06,VALID,917.524,VALID,0.0,VALID,83.957,VALID,377.762,VALID,23.574,INVALID,360.0,VALID,0.0,
2019-10-22, 10:20:06,VALID,917.513,VALID,0.0,VALID,86.098,VALID,404.754,VALID,23.699,INVALID,360.0,VALID,0.0,
2019-10-22, 10:21:06,VALID,917.494,VALID,0.0,VALID,87.288,VALID,447.204,VALID,23.596,INVALID,360.0,VALID,0.0,
2019-10-22, 10:22:06,VALID,917.498,VALID,0.0,VALID,87.779,VALID,656.353,VALID,23.467,INVALID,360.0,VALID,0.0,
2019-10-22, 10:23:06,VALID,917.482,VALID,0.0,VALID,87.303,VALID,796.725,VALID,23.388,INVALID,360.0,VALID,0.0,
2019-10-22, 10:24:06,VALID,917.469,VALID,0.0,VALID,87.197,VALID,866.016,VALID,23.299,INVALID,360.0,VALID,0.0,
2019-10-22, 10:25:06,VALID,917.453,VALID,0.0,VALID,87.086,VALID,901.352,VALID,23.269,INVALID,360.0,VALID,0.0,
2019-10-22, 10:26:06,VALID,917.434,VALID,0.0,VALID,88.986,VALID,922.98,VALID,23.449,INVALID,360.0,VALID,0.0,
2019-10-22, 10:27:06,VALID,917.439,VALID,0.0,VALID,87.369,VALID,801.511,VALID,23.712,INVALID,360.0,VALID,0.0,
2019-10-22, 10:28:06,VALID,917.457,VALID,0.0,VALID,86.43,VALID,641.038,VALID,24.121,INVALID,360.0,VALID,0.0,
2019-10-22, 10:29:06,VALID,917.456,VALID,0.0,VALID,85.145,VALID,653.901,VALID,24.502,INVALID,360.0,VALID,0.0,
2019-10-22, 10:30:06,VALID,917.441,VALID,0.0,VALID,85.886,VALID,678.195,VALID,24.816,INVALID,360.0,VALID,0.0,
2019-10-22, 10:31:06,VALID,917.417,VALID,0.0,VALID,85.604,VALID,524.706,VALID,25.106,INVALID,360.0,VALID,0.0,
2019-10-22, 10:32:06,VALID,917.41,VALID,0.0,VALID,82.779,VALID,528.802,VALID,25.283,INVALID,360.0,VALID,0.0,
2019-10-22, 10:33:06,VALID,917.395,VALID,0.0,VALID,81.05,VALID,489.582,VALID,25.235,INVALID,360.0,VALID,0.0,
2019-10-22, 10:34:06,VALID,917.369,VALID,0.0,VALID,81.589,VALID,424.177,VALID,24.952,INVALID,360.0,VALID,0.0,
2019-10-22, 10:35:06,VALID,917.358,VALID,0.0,VALID,83.018,VALID,430.527,VALID,24.332,INVALID,360.0,VALID,0.0,
2019-10-22, 10:36:06,VALID,917.351,VALID,0.0,VALID,88.807,VALID,533.034,VALID,24.085,INVALID,360.0,VALID,0.0,